Overview Statistics Trail Chart Weather Telemetry Raw packets
 

This is the latest recevied weather packets stored in our database for station/object SA7AHC. If no packets are shown the sender has not sent any weather packets the latest 10 day(s).

<< 28 29 30 31 32 33 34 >>
Time Temp. Humidity Pressure Rain* Wind** Luminosity Snow
1788205529 13.33° C 96% 1009.4 hPa 0 mm - 0 W/m² -
1788204927 13.89° C 96% 1009.4 hPa 0 mm - 0 W/m² -
1788204327 13.89° C 96% 1009.4 hPa 0 mm - 0 W/m² -
1788203726 13.89° C 96% 1009.4 hPa 0 mm - 0 W/m² -
1788203125 13.89° C 96% 1009.4 hPa 0 mm - 0 W/m² -
1788202523 13.89° C 96% 1009.4 hPa 0 mm - 0 W/m² -
1788201905 13.89° C 95% 1009.3 hPa 0 mm - 0 W/m² -
1788201311 13.89° C 95% 1008.8 hPa 0 mm - 0 W/m² -
1788200703 14.44° C 95% 1008.9 hPa 0 mm - 0 W/m² -
1788200102 14.44° C 95% 1009.3 hPa 0.25 mm - 0 W/m² -
1788199502 15° C 95% 1009.3 hPa 0.51 mm - 0 W/m² -
1788198901 15° C 95% 1009.3 hPa 0.76 mm - 5 W/m² -
1788198327 15° C 95% 1009.4 hPa 1.02 mm - 11 W/m² -
1788197702 15.56° C 95% 1009.3 hPa 1.02 mm - 9 W/m² -
1788197101 15.56° C 94% 1009.3 hPa 1.02 mm - 9 W/m² -
1788196503 15.56° C 94% 1009.6 hPa 0.76 mm - 0 W/m² -
1788195898 15.56° C 93% 1010.1 hPa 0.51 mm - 0 W/m² -
1788195297 15.56° C 92% 1010.1 hPa 0.25 mm - 0 W/m² -
1788194692 16.11° C 92% 1009.6 hPa 0 mm - 0 W/m² -
1788194092 16.11° C 91% 1009.5 hPa 0 mm - 0 W/m² -
1788193490 16.11° C 90% 1009.5 hPa 0 mm - 9 W/m² -
1788192886 16.67° C 90% 1009.6 hPa 0 mm - 19 W/m² -
1788192286 16.67° C 89% 1009.3 hPa 0.25 mm - 39 W/m² -
1788191684 16.67° C 88% 1009 hPa 0.25 mm - 28 W/m² -
1788191084 17.22° C 88% 1009 hPa 0.25 mm - 37 W/m² -

* Rain latest hour (hover to see other rain measurements)
** Current wind speed in m/s (hover to see current wind gust speed)